Location: Knowlton
(51.2333°N, 1.2667°E)
Time: 04:24:14
(UTC+00:00)

SL-16 R/B - Pass Details

Date: 18 April 2021
Orbit: 840 x 849 km, 71.0° (Epoch: 06 May)

Event Time Altitude Azimuth Distance (km) Brightness Sun altitude
Rises 22:10:36 0° 327° (NNW) 3,425 6.8 -23.7°
Reaches altitude 10° 22:13:07 10° 322° (NW) 2,484 5.7 -23.9°
Maximum altitude 22:18:36 50° 249° (WSW) 1,071 2.7 -24.3°
Enters shadow 22:19:45 43° 212° (SSW) 1,171 2.6 -24.3°
